Location: Castellar de la Frontera
(36.3200°N, 5.4500°W)
Time: 22:39:54
(UTC+02:00)

ISS - Pass Details

Date: 13 July 2018
Orbit: 402 x 408 km, 51.6° (Epoch: 22 July)

Event Time Altitude Azimuth Distance (km) Brightness Sun altitude
Exits shadow 03:30:34 13° 359° (N) 1,305 -0.5 -30.0°
Drops below altitude 10° 03:31:21 10° 11° (NNE) 1,467 -0.1 -29.9°
Sets 03:34:06 0° 36° (NE) 2,331 1.1 -29.7°
